Date,Time,Wetness (Wet Dry or Ice),Wind Speed (m/s),Temperature (C),Humidity (%),Pressure (mb),Radiation (W/m^2)
2022-02-04,04:50:00,WET,5.60,5.50,65.0,772.33,1.5
2022-02-04,04:55:00,WET,4.35,5.20,66.0,772.00,1.0
2022-02-04,05:00:00,WET,3.23,4.97,66.7,772.33,1.5
2022-02-04,05:05:00,WET,4.25,4.90,67.0,772.00,1.6
2022-02-04,05:10:00,WET,4.83,4.30,70.3,772.00,1.3
2022-02-04,05:15:00,WET,5.85,4.20,72.0,772.00,1.1
2022-02-04,05:20:00,WET,7.10,3.90,76.3,772.00,1.6
2022-02-04,05:25:00,WET,2.80,3.90,77.0,772.00,1.6
2022-02-04,05:30:00,WET,4.30,3.83,76.3,772.00,1.2
2022-02-04,05:35:00,WET,5.10,3.65,79.5,772.00,0.4
2022-02-04,05:40:00,WET,4.63,4.00,74.3,772.00,1.5
2022-02-04,05:45:00,WET,7.80,4.65,70.0,772.00,1.6
2022-02-04,05:50:00,WET,5.57,4.90,68.0,772.00,1.3
2022-02-04,05:55:00,WET,6.30,5.30,65.5,772.00,1.2
2022-02-04,06:00:00,WET,4.70,5.30,65.0,772.00,1.4
2022-02-04,06:05:00,WET,6.20,5.20,65.5,772.00,1.5
2022-02-04,06:10:00,WET,5.53,5.37,63.0,772.00,2.1
2022-02-04,06:15:00,WET,5.80,5.35,64.0,772.00,1.4
2022-02-04,06:20:00,WET,6.27,5.37,63.7,772.00,1.4
2022-02-04,06:25:00,WET,5.35,5.20,64.5,772.00,1.1
2022-02-04,06:30:00,WET,3.70,5.07,63.0,772.00,1.2
2022-02-04,06:35:00,WET,5.55,5.05,63.5,772.00,1.1
2022-02-04,06:40:00,WET,4.03,4.33,67.7,772.00,1.5
2022-02-04,06:45:00,WET,4.45,4.15,70.0,772.00,1.1
2022-02-04,06:50:00,WET,4.27,3.57,76.0,772.00,1.3
2022-02-04,06:55:00,WET,4.55,3.70,72.0,772.00,1.4
2022-02-04,07:00:00,WET,4.03,3.67,75.3,772.00,0.8
2022-02-04,07:05:00,WET,5.00,4.25,68.0,772.00,1.4
2022-02-04,07:10:00,WET,4.00,4.30,70.7,772.00,1.6
2022-02-04,07:15:00,WET,3.50,4.45,69.0,772.00,1.4
2022-02-04,07:20:00,WET,6.03,5.07,66.3,772.00,2.0
2022-02-04,07:25:00,WET,8.80,5.15,65.0,772.00,1.4
2022-02-04,07:30:00,WET,5.40,5.00,66.0,772.00,1.1
2022-02-04,07:35:00,WET,5.75,4.30,73.0,772.00,1.4
2022-02-04,07:40:00,WET,6.77,3.37,86.7,772.00,1.9
2022-02-04,07:45:00,WET,7.00,3.35,89.0,772.00,2.7
2022-02-04,07:50:00,WET,6.27,3.37,85.3,772.00,3.9
2022-02-04,07:55:00,WET,7.10,4.25,71.5,772.00,4.3
2022-02-04,08:00:00,WET,5.03,4.07,75.0,772.00,6.0
2022-02-04,08:05:00,WET,5.55,3.80,81.5,772.00,9.3
2022-02-04,08:10:00,WET,6.60,3.47,92.0,772.00,12.2
2022-02-04,08:15:00,WET,5.15,2.95,100.0,772.00,14.7
2022-02-04,08:20:00,WET,6.00,2.93,100.0,772.00,18.9
2022-02-04,08:25:00,WET,7.45,3.00,100.0,772.00,22.5
2022-02-04,08:30:00,WET,8.57,3.03,100.0,772.00,29.0
2022-02-04,08:35:00,WET,6.70,3.15,100.0,772.00,43.6
2022-02-04,08:40:00,WET,7.90,3.23,100.0,772.00,86.5
2022-02-04,08:45:00,WET,5.95,3.35,100.0,772.00,108.2
2022-02-04,08:50:00,WET,7.93,3.50,99.7,772.00,112.9
2022-02-04,08:55:00,WET,7.85,3.55,98.5,772.50,147.0
2022-02-04,09:00:00,WET,5.77,3.80,96.0,772.00,204.1
2022-02-04,09:05:00,WET,6.35,3.85,95.0,772.00,231.1
2022-02-04,09:10:00,WET,4.53,4.13,88.7,772.00,263.6
2022-02-04,09:15:00,WET,6.90,4.20,91.0,772.00,276.6
2022-02-04,09:20:00,WET,5.93,4.27,84.7,772.33,293.6
2022-02-04,09:25:00,WET,5.00,4.40,80.5,772.00,316.6
2022-02-04,09:30:00,WET,3.40,4.50,80.3,772.33,339.6
2022-02-04,09:35:00,WET,5.20,4.50,80.0,773.00,358.9
2022-02-04,09:40:00,WET,4.33,4.73,75.3,772.33,386.5
2022-02-04,09:45:00,WET,2.50,4.85,74.0,773.00,403.5
2022-02-04,09:50:00,WET,3.33,5.07,72.3,772.33,416.6
2022-02-04,09:55:00,WET,2.50,5.10,71.5,773.00,436.0
2022-02-04,10:00:00,WET,3.27,5.17,71.3,773.00,453.9
2022-02-04,10:05:00,WET,4.30,5.35,70.5,773.00,473.4
2022-02-04,10:10:00,WET,3.07,5.37,69.3,773.00,494.3
2022-02-04,10:15:00,WET,2.75,5.35,69.5,773.00,511.8
2022-02-04,10:20:00,WET,3.80,5.30,69.7,773.00,531.9
2022-02-04,10:25:00,WET,5.70,5.60,66.0,773.00,553.1
2022-02-04,10:30:00,WET,3.57,5.50,67.3,773.00,571.5
2022-02-04,10:35:00,WET,2.85,5.55,67.5,773.00,586.0
2022-02-04,10:40:00,WET,4.10,5.57,67.3,773.00,601.6
2022-02-04,10:45:00,WET,5.80,5.60,69.0,773.00,614.2
2022-02-04,10:50:00,WET,3.57,5.67,69.0,773.00,632.4
2022-02-04,10:55:00,WET,2.55,5.65,69.0,773.00,648.8
2022-02-04,11:00:00,WET,3.67,5.73,67.7,773.00,661.2
2022-02-04,11:05:00,WET,3.70,5.60,66.0,773.00,665.7
2022-02-04,11:10:00,WET,3.70,5.87,68.0,773.00,693.4
2022-02-04,11:15:00,WET,4.65,5.75,70.0,773.00,706.0
2022-02-04,11:20:00,WET,2.53,5.83,72.0,773.00,709.4
2022-02-04,11:25:00,WET,5.50,5.40,75.5,773.00,722.4
2022-02-04,11:30:00,WET,6.23,5.57,70.0,773.00,735.1
2022-02-04,11:35:00,WET,4.90,6.00,68.5,773.00,748.4
2022-02-04,11:40:00,WET,3.83,5.73,75.7,773.00,757.7
2022-02-04,11:45:00,WET,2.20,5.90,76.5,773.00,760.2
2022-02-04,11:50:00,WET,3.43,5.73,74.3,773.00,774.6
2022-02-04,11:55:00,WET,2.30,6.20,73.5,773.00,786.5
2022-02-04,12:00:00,WET,3.07,6.10,76.0,773.00,800.0
2022-02-04,12:05:00,WET,2.10,5.75,77.5,773.00,802.0
2022-02-04,12:10:00,WET,3.97,5.87,77.0,773.00,812.0
2022-02-04,12:15:00,WET,3.60,5.95,84.5,773.00,821.9
2022-02-04,12:20:00,WET,4.63,5.80,80.7,773.00,827.7
2022-02-04,12:25:00,WET,3.60,5.80,84.5,773.00,827.7
2022-02-04,12:30:00,WET,3.43,5.87,86.0,773.00,840.1
2022-02-04,12:35:00,WET,2.70,5.80,85.5,772.50,849.4
2022-02-04,12:40:00,WET,2.50,6.17,78.3,772.33,850.2
2022-02-04,12:45:00,WET,4.35,6.20,80.0,772.00,856.9
2022-02-04,12:50:00,WET,2.90,6.53,75.0,772.00,862.5
2022-02-04,12:55:00,WET,3.85,6.65,74.0,772.00,867.4
2022-02-04,13:00:00,WET,4.60,6.50,79.3,772.00,868.8
2022-02-04,13:05:00,WET,3.20,6.45,82.5,772.00,862.0
2022-02-04,13:10:00,WET,4.23,6.43,76.7,772.00,869.3
2022-02-04,13:15:00,WET,2.80,6.85,74.0,772.00,873.1
2022-02-04,13:20:00,WET,2.43,6.53,72.7,772.00,928.8
2022-02-04,13:25:00,WET,4.35,6.35,82.0,772.00,652.7
2022-02-04,13:30:00,WET,3.10,6.55,71.0,772.00,831.8
2022-02-04,13:35:00,WET,6.40,6.40,71.0,772.00,871.1
2022-02-04,13:40:00,WET,3.40,6.17,79.7,772.00,897.2
2022-02-04,13:45:00,WET,4.70,6.40,76.5,772.00,861.0
2022-02-04,13:50:00,WET,4.87,6.10,80.7,772.00,874.8
2022-02-04,13:55:00,WET,4.00,6.25,67.5,772.00,856.9
2022-02-04,14:00:00,WET,3.33,6.13,80.3,772.00,921.2
2022-02-04,14:05:00,WET,5.20,6.25,76.0,772.00,869.3
2022-02-04,14:10:00,WET,4.40,6.17,79.7,772.00,898.7
2022-02-04,14:15:00,WET,2.95,6.35,78.0,772.00,890.4
2022-02-04,14:20:00,WET,3.43,6.20,81.0,771.67,868.4
2022-02-04,14:25:00,WET,3.70,6.55,66.5,772.00,828.6
2022-02-04,14:30:00,WET,2.67,6.40,74.3,772.00,830.8
2022-02-04,14:35:00,WET,3.00,6.30,79.5,772.00,837.1
2022-02-04,14:40:00,WET,4.30,6.53,66.0,771.67,814.7
2022-02-04,14:45:00,WET,4.35,6.80,65.0,772.00,807.5
2022-02-04,14:50:00,WET,4.37,6.43,67.0,771.00,809.0
2022-02-04,14:55:00,WET,3.25,6.55,65.0,771.00,800.2
2022-02-04,15:00:00,WET,5.93,6.47,68.7,771.00,784.9
2022-02-04,15:05:00,WET,4.95,6.60,64.5,771.00,773.8
2022-02-04,15:10:00,WET,4.33,6.63,65.3,772.00,759.4
2022-02-04,15:15:00,WET,6.90,6.45,66.0,771.50,748.0
2022-02-04,15:20:00,WET,5.63,6.37,66.7,771.00,749.8
2022-02-04,15:25:00,WET,6.75,6.65,59.0,771.50,721.8
2022-02-04,15:30:00,WET,4.57,6.47,63.3,771.67,713.4
2022-02-04,15:35:00,WET,4.75,6.40,64.0,771.00,704.9
2022-02-04,15:40:00,WET,5.00,6.23,66.3,771.00,685.8
2022-02-04,15:45:00,WET,8.60,6.60,57.5,771.00,678.4
2022-02-04,15:50:00,WET,8.03,6.47,62.3,771.00,610.3
2022-02-04,15:55:00,WET,8.00,6.50,64.0,771.00,657.4
2022-02-04,16:00:00,WET,7.57,6.43,63.7,771.00,602.0
2022-02-04,16:05:00,WET,3.55,6.45,65.5,771.00,620.0
2022-02-04,16:10:00,WET,6.70,6.23,63.7,771.00,602.2
2022-02-04,16:15:00,WET,7.35,6.20,68.5,771.00,585.8
2022-02-04,16:20:00,WET,5.07,6.07,70.3,771.00,563.0
2022-02-04,16:25:00,WET,6.65,5.95,72.0,771.00,446.7
2022-02-04,16:30:00,WET,6.67,5.97,69.3,771.00,523.3
2022-02-04,16:35:00,WET,7.85,5.85,67.0,771.00,529.9
2022-02-04,16:40:00,WET,5.00,6.10,65.0,771.00,501.5
2022-02-04,16:45:00,WET,4.35,5.80,71.5,771.00,485.9
2022-02-04,16:50:00,WET,6.17,6.03,68.7,771.00,430.7
2022-02-04,16:55:00,WET,5.70,5.95,65.0,771.00,423.3
2022-02-04,17:00:00,WET,5.20,5.80,68.0,771.00,427.1
2022-02-04,17:05:00,WET,8.30,5.60,79.5,771.00,414.4
2022-02-04,17:10:00,WET,7.23,6.03,64.7,771.00,380.7
2022-02-04,17:15:00,WET,9.90,6.10,65.5,771.00,374.3
2022-02-04,17:20:00,WET,5.77,5.97,63.7,771.00,349.4
2022-02-04,17:25:00,WET,6.25,6.10,65.0,771.00,325.5
2022-02-04,17:30:00,WET,8.23,6.07,59.7,771.00,303.3
2022-02-04,17:35:00,WET,6.05,6.20,58.0,771.00,285.3
2022-02-04,17:40:00,WET,6.60,6.17,62.0,771.33,264.3
2022-02-04,17:45:00,WET,5.85,6.20,59.5,771.00,241.1
2022-02-04,17:50:00,WET,6.27,6.00,59.7,771.33,220.9
2022-02-04,17:55:00,WET,8.20,5.75,62.0,771.50,199.6
2022-02-04,18:00:00,WET,7.60,5.73,64.0,771.33,178.6
2022-02-04,18:05:00,WET,5.05,5.75,62.5,772.00,162.0
2022-02-04,18:10:00,WET,6.83,5.87,58.0,771.00,142.0
2022-02-04,18:15:00,WET,5.00,5.75,60.0,771.50,118.2
2022-02-04,18:20:00,WET,7.17,5.53,62.3,771.67,93.1
2022-02-04,18:25:00,WET,7.70,5.70,57.0,771.00,73.5
2022-02-04,18:30:00,WET,7.00,5.57,60.0,771.67,54.6
2022-02-04,18:35:00,WET,6.30,5.40,62.5,771.50,38.5
2022-02-04,18:40:00,WET,6.27,5.40,61.7,771.67,26.5
2022-02-04,18:45:00,WET,5.05,5.45,60.0,772.00,17.6
2022-02-04,18:50:00,WET,7.67,5.33,59.3,771.33,12.3
2022-02-04,18:55:00,WET,6.80,5.40,57.5,772.00,6.2
2022-02-04,19:00:00,WET,5.93,5.43,54.0,772.00,4.6
2022-02-04,19:05:00,WET,6.10,5.25,57.5,772.00,2.8
2022-02-04,19:10:00,WET,5.27,5.40,57.3,772.00,1.9
2022-02-04,19:15:00,WET,6.85,5.25,58.5,772.00,1.7
2022-02-04,19:20:00,WET,6.13,5.30,55.7,772.00,0.9
2022-02-04,19:25:00,WET,4.15,5.30,57.5,772.00,1.2
2022-02-04,19:30:00,WET,6.23,5.37,56.7,772.00,0.9
2022-02-04,19:35:00,WET,5.90,5.20,57.5,772.00,1.1
2022-02-04,19:40:00,WET,6.47,5.27,56.3,772.00,1.0
2022-02-04,19:45:00,WET,5.10,5.40,54.5,772.00,0.5
2022-02-04,19:50:00,WET,5.10,5.27,56.3,772.00,1.0
2022-02-04,19:55:00,WET,5.70,5.15,55.5,772.00,1.6
2022-02-04,20:00:00,WET,4.37,5.13,56.7,772.00,1.1
2022-02-04,20:05:00,WET,4.35,5.25,54.5,772.00,1.1
2022-02-04,20:10:00,WET,5.03,5.10,56.3,772.00,1.2
2022-02-04,20:15:00,WET,5.50,5.25,55.0,772.00,0.8
2022-02-04,20:20:00,WET,6.13,4.87,57.3,772.00,1.2
2022-02-04,20:25:00,WET,5.75,5.25,53.5,772.00,1.0
2022-02-04,20:30:00,WET,5.80,5.00,56.0,772.00,1.3
2022-02-04,20:35:00,WET,4.20,5.15,54.5,772.00,1.3
2022-02-04,20:40:00,WET,6.37,5.07,55.7,772.00,1.3
2022-02-04,20:45:00,WET,4.40,5.00,56.0,772.00,1.2
2022-02-04,20:50:00,WET,5.17,5.07,55.3,772.00,1.2
2022-02-04,20:55:00,WET,5.60,4.95,56.0,772.00,1.4
2022-02-04,21:00:00,WET,5.97,5.13,53.7,772.00,1.5
2022-02-04,21:05:00,WET,3.25,5.15,54.5,772.00,0.9
2022-02-04,21:10:00,WET,5.67,5.17,53.7,772.00,0.7
2022-02-04,21:15:00,WET,5.40,5.35,54.0,772.50,1.1
2022-02-04,21:20:00,WET,5.43,5.13,55.3,772.33,0.9
2022-02-04,21:25:00,WET,4.90,5.15,56.0,773.00,1.2
2022-02-04,21:30:00,WET,4.83,5.20,56.0,772.67,1.1
2022-02-04,21:35:00,WET,4.85,5.15,56.0,772.50,1.1
2022-02-04,21:40:00,WET,4.53,5.00,57.3,773.00,0.9
2022-02-04,21:45:00,WET,4.85,5.05,57.0,773.00,1.1
2022-02-04,21:50:00,WET,5.93,4.97,56.7,773.00,1.0
2022-02-04,21:55:00,WET,5.00,4.95,56.0,773.00,1.3
2022-02-04,22:00:00,WET,4.67,4.93,55.3,773.00,1.3
2022-02-04,22:05:00,WET,4.35,5.00,55.0,773.00,1.6
2022-02-04,22:10:00,WET,5.30,4.83,55.0,773.00,1.2
2022-02-04,22:15:00,WET,5.10,5.00,54.0,773.00,1.1
2022-02-04,22:20:00,WET,3.97,4.77,55.7,773.00,0.7
2022-02-04,22:25:00,WET,4.50,4.60,57.5,773.00,1.2
2022-02-04,22:30:00,WET,4.67,4.83,55.3,773.00,2.1
2022-02-04,22:35:00,WET,4.70,4.75,56.0,773.00,1.8
2022-02-04,22:40:00,WET,5.90,4.70,57.3,773.00,1.1
2022-02-04,22:45:00,WET,3.90,4.80,56.0,773.00,1.3
2022-02-04,22:50:00,WET,6.07,4.57,57.7,773.00,1.0
2022-02-04,22:55:00,WET,4.15,4.65,57.5,773.00,1.0
2022-02-04,23:00:00,WET,6.83,4.90,56.0,772.67,1.0
2022-02-04,23:05:00,WET,5.45,4.95,56.5,773.00,1.2
2022-02-04,23:10:00,WET,7.57,5.07,55.0,773.00,1.2
2022-02-04,23:15:00,WET,7.15,5.00,54.5,773.00,1.0
2022-02-04,23:20:00,WET,6.20,5.10,53.7,773.00,1.1
2022-02-04,23:25:00,WET,7.25,5.05,53.5,773.00,0.6
2022-02-04,23:30:00,WET,6.40,5.07,54.0,773.00,0.7
2022-02-04,23:35:00,WET,4.35,4.85,54.0,773.00,2.3
2022-02-04,23:40:00,WET,6.70,4.93,54.3,773.00,1.1
2022-02-04,23:45:00,WET,4.80,4.85,54.5,773.00,1.4
2022-02-04,23:50:00,WET,4.63,4.80,55.0,773.00,1.0
2022-02-04,23:55:00,WET,4.75,4.70,55.0,773.00,1.0
2022-02-05,00:00:00,WET,5.97,4.77,55.3,773.00,0.6
2022-02-05,00:05:00,WET,4.50,4.85,55.0,773.00,1.1
2022-02-05,00:10:00,WET,6.67,4.90,55.3,773.00,1.1
2022-02-05,00:15:00,WET,4.50,4.75,55.5,773.00,1.3
2022-02-05,00:20:00,WET,6.73,4.73,55.3,773.00,1.1
2022-02-05,00:25:00,WET,6.55,4.85,53.0,773.00,1.1
2022-02-05,00:30:00,WET,7.20,5.03,50.7,773.00,1.3
2022-02-05,00:35:00,WET,5.50,5.05,51.5,773.00,1.4
2022-02-05,00:40:00,WET,7.13,5.07,52.3,772.33,1.2
2022-02-05,00:45:00,WET,5.40,5.05,53.5,773.00,1.3
2022-02-05,00:50:00,WET,6.87,4.97,54.0,772.00,1.2
2022-02-05,00:55:00,WET,6.30,4.90,55.5,772.00,1.1
2022-02-05,01:00:00,WET,6.53,4.83,54.3,772.00,1.0
2022-02-05,01:05:00,WET,6.45,4.90,54.0,772.00,0.8
2022-02-05,01:10:00,WET,5.23,4.67,55.3,772.00,1.6
2022-02-05,01:15:00,WET,5.55,4.75,54.5,772.00,1.1
2022-02-05,01:20:00,WET,6.33,4.70,54.7,772.00,1.2
2022-02-05,01:25:00,WET,6.40,4.60,55.0,772.00,0.9
2022-02-05,01:30:00,WET,5.90,4.60,55.0,772.00,1.1
2022-02-05,01:35:00,WET,7.75,4.55,54.5,772.00,1.4
2022-02-05,01:40:00,WET,6.20,4.57,55.0,772.00,1.0
2022-02-05,01:45:00,WET,5.45,4.55,54.5,772.00,0.9
2022-02-05,01:50:00,WET,5.23,4.63,54.0,772.00,1.1
2022-02-05,01:55:00,WET,7.85,4.65,53.5,772.00,0.9
2022-02-05,02:00:00,WET,4.17,4.80,51.3,772.00,1.0
2022-02-05,02:05:00,WET,5.75,4.80,51.0,772.00,0.9
2022-02-05,02:10:00,WET,5.17,4.77,51.0,772.00,1.5
2022-02-05,02:15:00,WET,5.25,4.65,50.5,772.00,1.5
2022-02-05,02:20:00,WET,5.93,4.67,49.7,772.00,1.2
2022-02-05,02:25:00,WET,4.35,4.80,48.5,772.00,0.9
2022-02-05,02:30:00,WET,6.03,4.93,48.3,772.00,1.0
2022-02-05,02:35:00,WET,6.30,4.90,48.0,772.00,1.4
2022-02-05,02:40:00,WET,7.20,4.90,48.0,772.00,1.2
2022-02-05,02:45:00,WET,6.00,5.05,47.0,772.00,0.9
2022-02-05,02:50:00,WET,5.37,4.80,47.7,772.00,1.1
2022-02-05,02:55:00,WET,6.05,4.80,47.5,772.00,1.2
2022-02-05,03:00:00,WET,6.97,4.53,50.3,772.00,1.1
2022-02-05,03:05:00,WET,7.00,4.30,52.5,772.00,0.3
2022-02-05,03:10:00,WET,7.17,4.23,53.3,772.00,1.0
2022-02-05,03:15:00,WET,5.35,4.10,53.0,772.00,1.1
2022-02-05,03:20:00,WET,5.70,4.20,50.3,772.00,1.3
2022-02-05,03:25:00,WET,6.05,4.20,50.5,772.00,1.1
2022-02-05,03:30:00,WET,6.73,4.30,49.7,772.00,1.2
2022-02-05,03:35:00,WET,5.30,4.20,50.0,772.00,1.1
2022-02-05,03:40:00,WET,5.17,4.20,52.0,772.00,1.2
2022-02-05,03:45:00,WET,5.05,4.10,52.0,772.00,1.1
2022-02-05,03:50:00,WET,5.10,4.33,48.3,772.00,1.2
2022-02-05,03:55:00,WET,4.95,4.30,50.5,772.00,1.4
2022-02-05,04:00:00,WET,6.50,4.40,50.0,771.00,1.1
2022-02-05,04:05:00,WET,5.90,4.35,51.0,772.00,1.2
2022-02-05,04:10:00,WET,7.60,4.23,52.0,771.33,1.3
2022-02-05,04:15:00,WET,6.50,4.35,52.5,771.50,1.4
2022-02-05,04:20:00,WET,4.30,4.40,53.0,772.00,1.3
2022-02-05,04:25:00,WET,3.15,4.30,54.0,772.00,0.8
2022-02-05,04:30:00,WET,2.33,4.17,53.7,772.00,0.9
2022-02-05,04:35:00,WET,0.95,4.00,55.0,772.00,0.6
2022-02-05,04:40:00,WET,1.73,4.00,54.3,772.00,1.3
2022-02-05,04:45:00,WET,2.25,3.85,55.0,772.00,0.2
2022-02-05,04:50:00,WET,1.90,3.73,56.3,772.00,1.0
2022-02-05,04:55:00,WET,2.50,3.55,57.5,772.00,1.8
2022-02-05,05:00:00,WET,4.90,3.50,58.7,771.67,1.3
2022-02-05,05:05:00,WET,4.95,3.25,63.0,772.00,1.1
2022-02-05,05:10:00,WET,5.53,3.30,62.3,771.67,0.8
2022-02-05,05:15:00,WET,5.55,3.40,60.0,771.00,1.1
2022-02-05,05:20:00,WET,5.37,3.67,57.7,772.00,1.3
2022-02-05,05:25:00,WET,4.30,3.65,56.0,772.00,1.1
2022-02-05,05:30:00,WET,4.23,3.77,55.7,771.00,0.8
2022-02-05,05:35:00,WET,4.85,3.85,54.5,771.00,1.1
2022-02-05,05:40:00,WET,3.93,3.87,54.0,771.00,1.0
2022-02-05,05:45:00,WET,5.60,3.90,53.0,771.00,1.2
2022-02-05,05:50:00,WET,5.33,3.97,54.0,771.00,1.1
2022-02-05,05:55:00,WET,5.25,3.90,54.5,771.00,1.7
2022-02-05,06:00:00,WET,6.33,3.87,54.7,771.00,1.2
2022-02-05,06:05:00,WET,5.05,3.90,54.5,771.00,1.1
2022-02-05,06:10:00,WET,6.70,3.90,54.3,771.00,0.9
2022-02-05,06:15:00,WET,6.00,3.85,54.0,771.00,1.1
2022-02-05,06:20:00,WET,5.83,3.77,55.0,771.00,1.1
2022-02-05,06:25:00,WET,6.25,3.75,55.5,771.00,0.9
2022-02-05,06:30:00,WET,7.37,3.77,55.0,771.00,1.3
2022-02-05,06:35:00,WET,6.30,3.70,54.0,771.00,1.2
2022-02-05,06:40:00,WET,5.93,4.00,49.3,771.00,1.2
2022-02-05,06:45:00,WET,6.75,4.20,48.5,771.00,0.6
2022-02-05,06:50:00,WET,5.63,4.17,48.7,771.00,0.7
2022-02-05,06:55:00,WET,4.60,4.25,43.5,771.00,1.1
2022-02-05,07:00:00,WET,3.77,4.30,45.0,771.00,1.3
2022-02-05,07:05:00,WET,3.25,4.35,46.0,771.00,1.1
2022-02-05,07:10:00,WET,4.93,4.27,45.7,771.00,1.2
2022-02-05,07:15:00,WET,4.75,4.35,46.0,771.00,1.3
2022-02-05,07:20:00,WET,5.63,4.23,45.7,771.00,0.9
2022-02-05,07:25:00,WET,4.10,4.20,46.0,771.00,1.0
2022-02-05,07:30:00,WET,5.70,4.10,45.7,771.00,1.2
2022-02-05,07:35:00,WET,6.05,4.25,44.5,771.00,1.3
2022-02-05,07:40:00,WET,4.57,4.23,45.7,771.00,1.6
2022-02-05,07:45:00,WET,6.05,4.00,46.5,771.00,2.4
2022-02-05,07:50:00,WET,5.97,4.17,45.7,771.00,3.7
2022-02-05,07:55:00,WET,5.75,4.00,45.0,771.00,5.9
2022-02-05,08:00:00,WET,4.77,4.27,41.7,771.00,8.1
2022-02-05,08:05:00,WET,5.40,4.45,42.0,771.00,11.3
2022-02-05,08:10:00,WET,5.33,4.40,42.0,771.00,13.7
2022-02-05,08:15:00,WET,5.70,4.20,45.0,771.00,16.6
2022-02-05,08:20:00,WET,5.70,4.10,51.0,771.00,19.1
2022-02-05,08:25:00,WET,6.05,3.80,56.5,771.50,21.4
2022-02-05,08:30:00,WET,5.90,4.10,53.7,771.00,63.2
2022-02-05,08:35:00,WET,5.90,4.05,56.0,772.00,149.9
2022-02-05,08:40:00,WET,5.17,4.10,57.0,772.00,169.2
2022-02-05,08:45:00,WET,5.40,4.20,56.5,772.00,190.9
2022-02-05,08:50:00,WET,5.37,4.40,55.3,772.00,211.3
2022-02-05,08:55:00,WET,5.20,4.35,55.0,772.00,232.4
2022-02-05,09:00:00,WET,4.63,4.57,55.0,772.00,253.7
2022-02-05,09:05:00,WET,4.80,4.85,50.0,772.00,274.4
2022-02-05,09:10:00,WET,3.57,4.77,52.0,772.00,296.8
2022-02-05,09:15:00,WET,4.90,4.95,52.0,772.00,319.1
2022-02-05,09:20:00,WET,5.27,5.43,42.3,772.00,341.2
2022-02-05,09:25:00,DRY,4.50,5.65,41.5,772.00,361.2
2022-02-05,09:30:00,WET,4.03,5.53,49.7,772.00,382.9
2022-02-05,09:35:00,WET,4.75,5.50,49.0,772.00,402.5
2022-02-05,09:40:00,WET,4.10,5.53,49.0,772.00,421.2
2022-02-05,09:45:00,WET,4.95,5.45,50.5,772.00,440.7
2022-02-05,09:50:00,WET,3.73,5.50,54.3,772.00,460.9
2022-02-05,09:55:00,WET,3.65,5.45,52.5,772.00,480.2
2022-02-05,10:00:00,WET,3.03,5.63,52.0,772.00,499.8
2022-02-05,10:05:00,DRY,2.85,5.70,52.5,772.00,518.1
2022-02-05,10:10:00,DRY,3.37,5.87,52.0,772.00,535.7
2022-02-05,10:15:00,DRY,2.50,5.95,48.0,772.00,553.9
2022-02-05,10:20:00,DRY,2.27,5.93,53.7,772.00,571.1
2022-02-05,10:25:00,DRY,2.20,6.00,53.0,772.00,588.5
2022-02-05,10:30:00,DRY,2.20,6.00,53.7,772.00,604.0
2022-02-05,10:35:00,DRY,1.55,6.05,56.0,772.00,622.4
2022-02-05,10:40:00,DRY,1.53,5.97,54.3,772.00,637.3
2022-02-05,10:45:00,DRY,2.10,6.25,55.5,772.00,654.4
2022-02-05,10:50:00,DRY,1.33,6.23,52.3,772.00,669.7
2022-02-05,10:55:00,DRY,1.50,6.65,50.5,772.00,682.7
2022-02-05,11:00:00,DRY,2.47,6.53,52.7,772.00,695.4
2022-02-05,11:05:00,DRY,1.50,6.65,54.5,772.00,709.8
2022-02-05,11:10:00,DRY,1.93,6.97,53.3,772.00,724.6
2022-02-05,11:15:00,DRY,1.60,7.15,51.0,772.00,738.8
2022-02-05,11:20:00,DRY,1.37,7.10,51.0,772.00,749.3
2022-02-05,11:25:00,DRY,2.40,6.95,53.5,772.00,760.6
2022-02-05,11:30:00,DRY,1.63,6.80,52.7,772.00,775.8
2022-02-05,11:35:00,DRY,1.80,6.70,52.5,772.00,780.6
2022-02-05,11:40:00,DRY,1.77,6.67,53.0,772.00,795.1
2022-02-05,11:45:00,DRY,1.25,6.95,54.5,772.00,802.2
2022-02-05,11:50:00,DRY,1.83,7.13,53.0,772.00,815.5
2022-02-05,11:55:00,DRY,1.10,6.80,57.5,772.00,821.8
2022-02-05,12:00:00,DRY,1.67,6.90,56.7,772.00,833.8
2022-02-05,12:05:00,DRY,1.65,7.10,56.0,772.00,843.8
2022-02-05,12:10:00,DRY,2.13,7.17,58.3,772.00,852.6
2022-02-05,12:15:00,DRY,3.30,6.70,60.5,772.00,856.2
2022-02-05,12:20:00,DRY,2.90,6.80,60.0,772.00,858.3
2022-02-05,12:25:00,DRY,2.40,6.80,60.5,772.00,867.4
2022-02-05,12:30:00,DRY,2.17,6.97,58.3,772.00,875.0
2022-02-05,12:35:00,DRY,2.20,7.10,58.5,772.00,873.8
2022-02-05,12:40:00,DRY,1.80,7.03,58.3,772.00,878.3
2022-02-05,12:45:00,DRY,1.60,7.40,57.0,772.00,878.8
2022-02-05,12:50:00,DRY,3.23,6.90,59.3,772.00,887.9
2022-02-05,12:55:00,DRY,2.10,6.90,59.5,772.00,889.1
2022-02-05,13:00:00,DRY,2.57,7.13,60.0,772.00,893.5
2022-02-05,13:05:00,DRY,3.30,7.05,62.0,772.00,896.3
2022-02-05,13:10:00,DRY,3.50,7.27,63.3,772.00,899.0
2022-02-05,13:15:00,DRY,2.95,7.05,65.0,772.00,896.6
2022-02-05,13:20:00,DRY,2.40,7.20,66.3,772.00,899.7
2022-02-05,13:25:00,DRY,1.75,7.30,67.0,772.00,900.7
2022-02-05,13:30:00,WET,3.05,7.20,70.5,772.00,900.5
2022-02-05,13:35:00,WET,2.50,7.50,70.0,772.00,897.7
2022-02-05,13:40:00,WET,2.03,7.47,71.7,772.00,901.2
2022-02-05,13:45:00,WET,2.10,7.60,73.0,772.00,905.8
2022-02-05,13:50:00,WET,1.33,7.73,73.7,772.00,912.2
2022-02-05,13:55:00,WET,3.80,7.50,76.0,772.00,821.4
2022-02-05,14:00:00,WET,2.40,7.43,76.0,772.00,695.1
2022-02-05,14:05:00,WET,2.00,7.70,76.0,772.00,924.4
2022-02-05,14:10:00,WET,1.73,7.93,75.7,772.00,755.9
2022-02-05,14:15:00,WET,1.15,7.25,79.5,772.00,207.8
2022-02-05,14:20:00,WET,1.27,7.47,82.0,772.00,454.4
2022-02-05,14:25:00,WET,1.20,7.15,81.5,772.00,478.8
2022-02-05,14:30:00,WET,1.17,7.37,85.0,772.00,331.8
2022-02-05,14:35:00,WET,2.05,7.15,84.0,771.50,313.5
2022-02-05,14:40:00,WET,1.67,6.40,95.3,771.00,318.4
2022-02-05,14:45:00,WET,3.10,6.70,84.5,771.00,737.1
2022-02-05,14:50:00,WET,2.90,6.60,85.3,771.00,848.3
2022-02-05,14:55:00,WET,3.70,6.45,81.5,771.00,942.5
2022-02-05,15:00:00,WET,2.87,6.63,82.3,771.00,930.2
2022-02-05,15:05:00,WET,2.25,6.50,84.0,771.00,627.3
2022-02-05,15:10:00,WET,3.67,6.80,81.0,771.00,853.1
2022-02-05,15:15:00,WET,3.35,7.10,78.5,771.00,809.7
2022-02-05,15:20:00,WET,3.10,7.00,77.7,771.00,768.3
2022-02-05,15:25:00,WET,2.45,6.95,80.5,771.00,798.2
2022-02-05,15:30:00,WET,2.23,7.27,80.0,771.00,644.1
2022-02-05,15:35:00,WET,2.65,6.85,79.0,771.00,760.6
2022-02-05,15:40:00,WET,1.73,6.77,80.3,771.00,741.7
2022-02-05,15:45:00,WET,3.60,6.55,82.5,771.00,724.3
2022-02-05,15:50:00,WET,1.73,6.97,78.7,771.00,665.1
2022-02-05,15:55:00,WET,2.80,6.80,78.0,771.00,671.3
2022-02-05,16:00:00,WET,2.97,7.00,75.7,771.00,658.6
2022-02-05,16:05:00,WET,3.55,6.85,75.0,771.00,637.0
2022-02-05,16:10:00,WET,2.17,6.93,74.0,771.00,621.9
2022-02-05,16:15:00,WET,2.10,7.00,71.5,771.00,607.0
2022-02-05,16:20:00,WET,1.83,7.23,68.0,771.00,587.6
2022-02-05,16:25:00,WET,3.15,7.20,69.0,771.00,571.5
2022-02-05,16:30:00,WET,2.10,6.93,65.3,771.00,556.9
2022-02-05,16:35:00,WET,3.40,7.00,66.0,771.00,536.6
2022-02-05,16:40:00,WET,2.80,6.77,65.3,771.00,519.2
2022-02-05,16:45:00,WET,2.70,6.75,65.5,771.00,500.9
2022-02-05,16:50:00,WET,2.33,7.13,61.7,771.00,482.3
2022-02-05,16:55:00,WET,2.00,7.00,60.0,771.00,463.6
2022-02-05,17:00:00,WET,3.10,6.80,61.3,771.00,442.4
2022-02-05,17:05:00,WET,2.00,6.90,60.5,771.00,425.2
2022-02-05,17:10:00,WET,1.87,7.03,60.0,771.00,404.1
2022-02-05,17:15:00,WET,2.60,7.10,59.0,771.00,383.8
2022-02-05,17:20:00,WET,2.40,6.83,58.7,771.00,363.1
2022-02-05,17:25:00,WET,2.50,7.00,56.0,771.00,342.9
2022-02-05,17:30:00,WET,2.30,6.67,57.3,771.00,320.3
2022-02-05,17:35:00,WET,3.50,6.65,57.5,771.00,301.6
2022-02-05,17:40:00,WET,2.63,6.70,58.3,771.00,278.6
2022-02-05,17:45:00,WET,2.75,6.80,57.5,771.00,259.6
2022-02-05,17:50:00,WET,2.20,6.77,57.0,771.33,236.8
2022-02-05,17:55:00,WET,2.10,6.65,58.5,771.50,215.8
2022-02-05,18:00:00,WET,3.07,6.53,56.3,771.67,196.4
2022-02-05,18:05:00,WET,2.35,6.40,60.5,771.50,176.9
2022-02-05,18:10:00,WET,2.13,6.43,60.3,771.67,158.0
2022-02-05,18:15:00,WET,2.35,6.30,61.0,771.00,134.4
2022-02-05,18:20:00,WET,2.77,6.23,59.0,771.33,107.8
2022-02-05,18:25:00,WET,2.10,6.20,58.5,772.00,82.0
2022-02-05,18:30:00,WET,2.67,6.07,58.0,772.00,61.7
2022-02-05,18:35:00,WET,2.85,6.05,58.0,772.00,43.6
2022-02-05,18:40:00,WET,3.30,5.90,58.7,772.00,28.4
2022-02-05,18:45:00,WET,2.90,5.75,60.0,772.00,17.9
2022-02-05,18:50:00,WET,3.17,5.60,59.3,772.00,12.4
2022-02-05,18:55:00,WET,3.05,5.55,58.0,772.00,6.9
2022-02-05,19:00:00,WET,2.70,5.47,57.3,772.00,4.7
2022-02-05,19:05:00,WET,3.05,5.40,58.0,772.00,3.0
2022-02-05,19:10:00,WET,2.97,5.40,57.3,772.00,1.9
2022-02-05,19:15:00,WET,2.25,5.30,59.0,772.00,2.2
2022-02-05,19:20:00,WET,3.17,5.30,58.7,772.00,1.4
2022-02-05,19:25:00,WET,3.10,5.35,57.5,772.00,1.1
2022-02-05,19:30:00,WET,3.37,5.23,57.7,772.00,1.2
2022-02-05,19:35:00,WET,2.65,5.15,60.5,772.00,1.6
2022-02-05,19:40:00,WET,2.77,5.13,59.7,772.00,1.1